[[{"header":{"parameterUnit":"m.s-1","parameterCategory":1,"la1":30.2991,"la2":30.254,"lo1":-89.0895,"lo2":-89.0444,"dy":0.0017,"dx":0.0017,"nx":28,"ny":28,"refTime":"2025-03-24T21:00:00:Z","depth":0,"parameterNumber":2,"parameterNumberName":"U-component_of_WINDS"},"data":[0,0,0,0,0,0,0,0,0,0,0,0,0,0,0,0,0,0,0,0,0,0,0,0,0,0,0,0,0,0,0,0,0,0,0,0,0,0,0,0,0,0,0,0,0,0,0,0,0,0,0,0,0,0,0,0,0,0,-1.0191,-1.019,0,-1.0094,-1.0093,-1.0092,-0.9997,-0.9996,-0.9995,-0.9994,-0.9892,-0.989,-0.9889,0,0,0,0,0,0,0,0,0,0,0,0,0,-1.0293,-1.0292,-1.0191,-1.019,-1.0189,-1.0094,-1.0093,-1.0092,-0.9998,-0.9996,-0.9995,-0.9993,-0.9892,-0.9891,-0.9889,0,0,0,0,0,0,0,0,0,0,0,0,0,-1.0228,-1.0291,-1.0191,-1.013,-1.0124,-1.0095,-1.0093,-1.0091,-0.9998,-0.9996,-0.9994,-0.9993,-0.9893,-0.9891,-0.9888,-0.991,0,0,-0.9881,-0.988,0,0,0,0,0,0,0,0,-1.0232,-1.0224,-1.0141,-1.0135,-1.0127,-1.0056,-1.0091,-1.003,-0.9998,-1.0046,-0.9994,-0.9992,-0.9948,-0.9941,-0.9927,-0.9906,-0.9901,-0.9881,-0.988,-0.9879,-0.9878,0,0,0,0,0,0,0,-1.0236,-1.0228,-1.0152,-1.0139,-1.0131,-1.0107,-1.0096,-1.0079,-1.0008,-1.0041,-1.0034,-1.0024,-0.9944,-0.9929,-0.9923,-0.99,-0.9881,-0.9879,-0.9877,-0.9877,-0.9893,-0.9895,0,0,0,0,0,0,-1.025,-1.0232,-1.0156,-1.015,-1.0176,-1.0107,-1.0094,-1.0081,-1.0008,-0.9995,-1.0026,-1.002,-0.9934,-0.9926,-0.992,-0.9941,-0.9879,-0.9876,-0.9875,-0.9891,-0.9894,-0.9896,0,0,0,0,0,0,-1.0253,-1.0244,-1.0159,-1.0189,-1.0176,-1.0107,-1.0093,-1.008,-1.0065,-0.9996,-0.9983,-1.0024,-0.9932,-0.9923,-0.9914,-0.9937,-0.9875,-0.9873,-0.9889,-0.9892,-0.9895,-0.9985,0,0,0,0,0,0,-1.0256,-1.0246,-1.0254,-1.019,-1.0175,-1.0156,-1.0094,-1.0079,-1.0061,-1.0053,-0.9991,-0.9979,-0.993,-0.9918,-0.9912,-0.9932,-0.9871,-0.9887,-0.989,-0.9894,-0.998,-0.9991,-1.0,0,0,0,0,0,-1.026,-1.0282,-1.0255,-1.0246,-1.0184,-1.0158,-1.0149,-1.0093,-1.0064,-1.0071,-1.0027,-0.9981,-0.9935,-0.9918,-0.991,-0.993,-0.9885,-0.9889,-0.9893,-0.9975,-0.9989,-1.0,0,0,0,0,0,0,-1.035,-1.0273,-1.0241,-1.0244,-1.0208,-1.0142,-1.0149,-1.0109,-1.008,-1.0074,-1.0004,-0.9991,-0.999,-0.9959,-0.9941,-0.9948,-0.9904,-0.9907,-0.9969,-0.9981,-0.9991,-0.9999,-0.9869,0,0,0,0,0,-1.037,-1.0356,-1.0289,-1.0298,-1.0282,-1.0219,-1.0205,-1.0166,-1.0126,-1.011,-1.0065,-1.0027,-1.0004,-0.9991,-0.9966,-0.9975,-0.996,-0.9985,-0.9995,-1.0004,-1.0007,-1.0011,-1.0021,-0.9909,-0.9909,-0.9909,0,0,-1.0411,-1.0367,-1.0363,-1.0315,-1.0282,-1.0269,-1.0207,-1.0195,-1.0185,-1.0107,-1.0097,-1.0063,-1.0016,-1.0017,-1.0015,-0.9991,-1.0035,-1.0009,-1.0016,-1.0015,-1.0016,-1.0027,-1.0036,-0.9912,-0.9912,-0.9911,0,0,-1.048,-1.0445,-1.0449,-1.0419,-1.0371,-1.0329,-1.0331,-1.0271,-1.0246,-1.0234,-1.0177,-1.0163,-1.0124,-1.0094,-1.0073,-1.0132,-1.0089,-1.0126,-1.0179,-1.0183,-1.0192,-1.02,-1.0222,-1.023,-1.0129,-1.013,-1.013,0,-1.0537,-1.0516,-1.0456,-1.0449,-1.0429,-1.036,-1.0364,-1.0337,-1.0283,-1.0272,-1.0245,-1.0197,-1.016,-1.0154,-1.0169,-1.0154,-1.0153,-1.0133,-1.0196,-1.0203,-1.0209,-1.0229,-1.0237,-1.0134,-1.0134,-1.0133,-1.0133,0,-1.0589,-1.0575,-1.0583,-1.0535,-1.0517,-1.0515,-1.0455,-1.0444,-1.0406,-1.0367,-1.0356,-1.031,-1.0276,-1.0271,-1.0233,-1.0259,-1.0246,-1.0209,-1.0163,-1.0225,-1.0243,-1.025,-1.0141,-1.014,-1.0138,-1.0137,0,0,-1.0711,-1.0631,-1.0635,-1.0613,-1.0556,-1.0544,-1.0539,-1.0506,-1.0498,-1.0463,-1.0458,-1.0428,-1.0394,-1.0371,-1.0328,-1.0332,-1.0383,-1.0294,-1.0292,-1.0314,-1.0411,-1.044,-1.045,-1.0354,-1.0355,-1.0356,-1.0415,0,-1.0771,-1.0759,-1.0706,-1.0709,-1.0696,-1.0631,-1.0626,-1.0591,-1.0555,-1.0538,-1.0497,-1.0478,-1.0433,-1.0419,-1.042,-1.0377,-1.0402,-1.0372,-1.0348,-1.0348,-1.0363,-1.0459,-1.0489,-1.0546,-1.0421,-1.0422,-1.0423,0,-1.0839,-1.0811,-1.0814,-1.0758,-1.0751,-1.0748,-1.0714,-1.0699,-1.0657,-1.063,-1.0606,-1.0559,-1.055,-1.0507,-1.0494,-1.0475,-1.0462,-1.044,-1.044,-1.0437,-1.039,-1.0458,-1.0563,-1.0572,-1.0433,-1.0433,-1.0432,0,-1.093,-1.0892,-1.0889,-1.0872,-1.0807,-1.0807,-1.0779,-1.0736,-1.072,-1.069,-1.0679,-1.0648,-1.0632,-1.0609,-1.0555,-1.0529,-1.0549,-1.0501,-1.0526,-1.0528,-1.0534,-1.0534,-1.0639,-1.0525,-1.0524,-1.0524,-1.0524,0,-1.1003,-1.1007,-1.0929,-1.0928,-1.0931,-1.0869,-1.0874,-1.084,-1.0803,-1.0793,-1.0734,-1.0726,-1.0656,-1.064,-1.0598,-1.0594,-1.0586,-1.0565,-1.0554,-1.0571,-1.0574,-1.0562,-1.0557,-1.0526,-1.0526,-1.0525,-1.0525,0,-1.1105,-1.1052,-1.1045,-1.0985,-1.0969,-1.0975,-1.0923,-1.0919,-1.0879,-1.0868,-1.0862,-1.08,-1.0778,-1.0722,-1.0685,-1.0657,-1.0665,-1.0644,-1.068,-1.0673,-1.0702,-1.0701,-1.0804,-1.0815,-1.0693,-1.0694,-1.0695,0,-1.1155,-1.1157,-1.1098,-1.1088,-1.1063,-1.1048,-1.1032,-1.0971,-1.0957,-1.091,-1.0912,-1.0886,-1.0862,-1.0831,-1.0782,-1.0754,-1.0732,-1.077,-1.0727,-1.0745,-1.0734,-1.0735,-1.0735,-1.078,-1.0781,-1.0783,-1.0784,0,-1.1251,-1.1225,-1.1205,-1.1176,-1.1159,-1.1132,-1.1103,-1.1098,-1.103,-1.1017,-1.0995,-1.0977,-1.094,-1.0915,-1.088,-1.0851,-1.0807,-1.0798,-1.0802,-1.082,-1.0842,-1.0832,-1.0707,-1.0796,-1.0794,-1.0794,-1.0793,-1.0792,-1.1329,-1.1329,-1.1287,-1.1267,-1.1238,-1.1213,-1.1206,-1.1167,-1.1147,-1.1114,-1.1079,-1.1061,-1.102,-1.0968,-1.0942,-1.0927,-1.0904,-1.091,-1.0912,-1.0915,-1.0923,-1.0844,-1.092,-1.092,-1.0919,-1.0919,-1.0919,0,-1.1423,-1.1393,-1.1375,-1.1337,-1.1321,-1.1281,-1.1246,-1.1236,-1.1221,-1.1187,-1.1165,-1.114,-1.1116,-1.1066,-1.1037,-1.1035,-1.1014,-1.1029,-1.1029,-1.1024,-1.0945,-1.0945,-1.1047,-1.1047,-1.1047,-1.1047,-1.1047,-1.1047,-1.147,-1.1468,-1.1438,-1.1421,-1.139,-1.1373,-1.1357,-1.1333,-1.1306,-1.1281,-1.1261,-1.1229,-1.1188,-1.1156,-1.1133,-1.1118,-1.1111,-1.1133,-1.1113,-1.1041,-1.1029,-1.1017,-1.1016,-1.1132,-1.1132,-1.1193,-1.1193,-1.1194]},{"header":{"parameterUnit":"m.s-1","parameterCategory":1,"la1":30.2991,"la2":30.254,"lo1":-89.0895,"lo2":-89.0444,"dy":0.0017,"dx":0.0017,"nx":28,"ny":28,"refTime":"2025-03-24T21:00:00:Z","depth":0,"parameterNumber":3,"parameterNumberName":"V-component_of_WINDS"},"data":[0,0,0,0,0,0,0,0,0,0,0,0,0,0,0,0,0,0,0,0,0,0,0,0,0,0,0,0,0,0,0,0,0,0,0,0,0,0,0,0,0,0,0,0,0,0,0,0,0,0,0,0,0,0,0,0,0,0,0.6861,0.686,0,0.682,0.682,0.6819,0.6829,0.6829,0.683,0.6831,0.6785,0.6783,0.6781,0,0,0,0,0,0,0,0,0,0,0,0,0,0.6942,0.694,0.6861,0.686,0.686,0.682,0.682,0.6819,0.6828,0.6829,0.683,0.6831,0.6785,0.6783,0.6781,0,0,0,0,0,0,0,0,0,0,0,0,0,0.6904,0.694,0.6861,0.686,0.6859,0.6821,0.682,0.6819,0.6828,0.6829,0.6831,0.6832,0.6786,0.6783,0.678,0.6739,0,0,0.6771,0.677,0,0,0,0,0,0,0,0,0.6907,0.6901,0.686,0.686,0.6859,0.6831,0.6832,0.6792,0.6828,0.684,0.6831,0.6832,0.6799,0.6795,0.6785,0.6737,0.6735,0.6771,0.6769,0.6768,0.6767,0,0,0,0,0,0,0,0.6909,0.6903,0.6845,0.686,0.6859,0.686,0.6856,0.6824,0.6813,0.6839,0.6839,0.6835,0.6799,0.6787,0.6784,0.6734,0.6771,0.6769,0.6767,0.6766,0.6651,0.6649,0,0,0,0,0,0,0.6913,0.6905,0.6846,0.6844,0.6886,0.6858,0.6853,0.6839,0.6814,0.6811,0.6834,0.6835,0.6792,0.6787,0.6782,0.6732,0.6768,0.6765,0.6764,0.6652,0.665,0.6649,0,0,0,0,0,0,0.6915,0.6908,0.6848,0.6875,0.6867,0.6855,0.6839,0.6837,0.6826,0.681,0.6807,0.6825,0.6793,0.6786,0.675,0.6731,0.6764,0.6761,0.6653,0.6651,0.665,0.6633,0,0,0,0,0,0,0.6917,0.6908,0.6893,0.6874,0.6866,0.6818,0.6837,0.6836,0.6822,0.6823,0.6801,0.6798,0.6793,0.6754,0.6747,0.6727,0.6759,0.6655,0.6653,0.665,0.6635,0.663,0.6626,0,0,0,0,0,0.692,0.6889,0.6892,0.6885,0.6847,0.6817,0.6811,0.6808,0.682,0.6804,0.6794,0.6799,0.6734,0.6751,0.6743,0.6722,0.6656,0.6653,0.665,0.6637,0.6631,0.6626,0,0,0,0,0,0,0.6904,0.6886,0.689,0.6852,0.6836,0.6818,0.6798,0.6802,0.6781,0.6783,0.6778,0.6772,0.6736,0.6725,0.6744,0.668,0.6697,0.6692,0.6689,0.6684,0.668,0.6683,0.6757,0,0,0,0,0,0.6897,0.6875,0.686,0.6828,0.682,0.681,0.6797,0.6796,0.6778,0.6771,0.6757,0.6739,0.6714,0.6698,0.6675,0.6633,0.6628,0.6615,0.6611,0.6607,0.6603,0.658,0.6574,0.6639,0.6639,0.6639,0,0,0.688,0.6868,0.6854,0.6825,0.6812,0.6788,0.6804,0.6779,0.6761,0.6766,0.6732,0.6722,0.67,0.6661,0.6644,0.6651,0.6584,0.6603,0.6601,0.6599,0.6577,0.6571,0.6565,0.6637,0.6638,0.6638,0,0,0.6839,0.6827,0.68,0.6787,0.6768,0.6762,0.6756,0.6737,0.6731,0.6697,0.6701,0.6678,0.6636,0.6621,0.6608,0.6561,0.6565,0.6554,0.6532,0.651,0.6505,0.65,0.6483,0.6478,0.655,0.655,0.655,0,0.682,0.6787,0.6785,0.6759,0.6746,0.6751,0.6723,0.671,0.6684,0.6674,0.6683,0.6631,0.6617,0.6575,0.6564,0.6553,0.6544,0.6556,0.6506,0.6501,0.6497,0.6481,0.6475,0.6548,0.6549,0.6549,0.6549,0,0.6765,0.6741,0.6721,0.6698,0.6682,0.6655,0.6648,0.6632,0.6632,0.6625,0.659,0.6573,0.6547,0.6537,0.6536,0.6494,0.65,0.6507,0.6524,0.649,0.6475,0.6468,0.6547,0.6547,0.6548,0.6548,0,0,0.6713,0.6689,0.6682,0.6672,0.6651,0.6632,0.6605,0.6581,0.6567,0.6548,0.6525,0.649,0.6497,0.6482,0.6479,0.646,0.6424,0.647,0.6469,0.6462,0.6378,0.6372,0.6365,0.6426,0.6425,0.6424,0.638,0,0.667,0.6624,0.6622,0.6579,0.6557,0.6562,0.6538,0.6523,0.6515,0.6494,0.6485,0.646,0.6472,0.6463,0.6444,0.6433,0.6407,0.6436,0.6404,0.6403,0.641,0.6358,0.6352,0.631,0.6374,0.6373,0.6372,0,0.6614,0.6595,0.6552,0.6535,0.6525,0.6504,0.6482,0.6462,0.6444,0.644,0.6424,0.6424,0.6395,0.6412,0.6372,0.6391,0.6378,0.637,0.6369,0.6366,0.6386,0.6353,0.6297,0.6291,0.6363,0.6363,0.6364,0,0.658,0.6545,0.6514,0.6505,0.6484,0.6469,0.646,0.6443,0.6429,0.6409,0.6399,0.6375,0.6362,0.6343,0.6337,0.635,0.6296,0.6313,0.6291,0.6291,0.628,0.6281,0.6221,0.6271,0.6271,0.6271,0.6271,0,0.6533,0.6506,0.6499,0.648,0.645,0.6447,0.6416,0.6407,0.6392,0.6371,0.6373,0.6352,0.6345,0.6322,0.6316,0.6284,0.6278,0.6273,0.6272,0.6273,0.6274,0.6264,0.6267,0.6269,0.627,0.627,0.627,0,0.6491,0.6485,0.6452,0.6436,0.6431,0.641,0.6395,0.6376,0.6369,0.6342,0.6335,0.6324,0.6298,0.6289,0.6257,0.6253,0.6215,0.6216,0.6222,0.6222,0.6201,0.6203,0.6133,0.6124,0.618,0.6179,0.6179,0,0.6461,0.6441,0.6423,0.641,0.64,0.6378,0.6364,0.636,0.6345,0.6323,0.6307,0.6282,0.6261,0.6219,0.6207,0.6183,0.6183,0.616,0.6179,0.6181,0.6183,0.6185,0.6182,0.6157,0.6156,0.6156,0.6155,0,0.6409,0.6408,0.6388,0.6368,0.6352,0.6335,0.6318,0.6307,0.63,0.6283,0.6257,0.6242,0.621,0.6185,0.616,0.6148,0.615,0.615,0.6143,0.6144,0.6149,0.6146,0.6213,0.6151,0.6152,0.6152,0.6152,0.6152,0.6373,0.6355,0.634,0.6319,0.6306,0.6291,0.6273,0.6264,0.6243,0.6219,0.6217,0.6189,0.6171,0.6138,0.6126,0.6103,0.6109,0.61,0.6098,0.6096,0.6094,0.6152,0.6098,0.6098,0.6098,0.6098,0.6099,0,0.6322,0.6312,0.6292,0.6271,0.6253,0.6258,0.624,0.6225,0.6202,0.6185,0.6166,0.6136,0.6112,0.6098,0.6073,0.6057,0.6058,0.6051,0.6052,0.6049,0.609,0.6098,0.6051,0.6051,0.6051,0.6051,0.6051,0.6051,0.6293,0.6264,0.626,0.6224,0.6215,0.6189,0.6179,0.6164,0.6151,0.6119,0.6099,0.6091,0.6075,0.605,0.6027,0.6023,0.6014,0.6007,0.6004,0.6042,0.6047,0.6051,0.6059,0.6005,0.6005,0.5965,0.5965,0.5965]}]]